Location: Christchurch
(43.5330°S, 172.6330°E)
Time: 08:47:18
(UTC+13:00)

ISS - Pass Details

Date: 30 January 2019
Orbit: 411 x 421 km, 51.6° (Epoch: 21 October)

Event Time Altitude Azimuth Distance (km) Brightness Sun altitude
Exits shadow 04:03:38 11° 54° (NE) 1,472 -1.0 -20.6°
Drops below altitude 10° 04:04:13 10° 64° (ENE) 1,510 -0.8 -20.5°
Enters shadow 05:00:40 -72° 302° (WNW) 12,575 3.7 -13.7°
Maximum altitude 05:39:49 79° 34° (NE) 436 -3.7 -8.1°
